Satellite: NOAA-14
Catalog number: 23455
Epoch time: 08331.33579295
Element set: 404
Inclination: 098.9324 deg
RA of node: 043.5402 deg
Eccentricity: 0.0009974
Arg of perigee: 049.7601 deg
Mean anomaly: 310.4484 deg
Mean motion: 14.13753100 rev/day
Decay rate: 2.18e-06 rev/day^2
Epoch rev: 71726
Checksum: 292
Satellite: NOAA-15
Catalog number: 25338
Epoch time: 08332.49945472
Element set: 713
Inclination: 098.5682 deg
RA of node: 320.3244 deg
Eccentricity: 0.0009815
Arg of perigee: 287.9372 deg
Mean anomaly: 072.0739 deg
Mean motion: 14.24734785 rev/day
Decay rate: 1.34e-06 rev/day^2
Epoch rev: 54805
Checksum: 328
Satellite: RESURS
Catalog number: 25394
Epoch time: 08331.54193665
Element set: 79
Inclination: 098.3652 deg
RA of node: 007.9343 deg
Eccentricity: 0.0002408
Arg of perigee: 078.2604 deg
Mean anomaly: 281.8850 deg
Mean motion: 14.24175702 rev/day
Decay rate: -2.8e-07 rev/day^2
Epoch rev: 53955
Checksum: 306
Satellite: FENGYUN1
Catalog number: 25730
Epoch time: 08332.24258715
Element set: 624
Inclination: 098.7395 deg
RA of node: 302.6397 deg
Eccentricity: 0.0022619
Arg of perigee: 062.5577 deg
Mean anomaly: 297.7890 deg
Mean motion: 14.07875336 rev/day
Decay rate: 7.08e-06 rev/day^2
Epoch rev: 49190
Checksum: 336
Satellite: OKEAN-0
Catalog number: 25860
Epoch time: 08332.02126497
Element set: 534
Inclination: 097.7655 deg
RA of node: 315.5046 deg
Eccentricity: 0.0001736
Arg of perigee: 080.6121 deg
Mean anomaly: 279.5281 deg
Mean motion: 14.73546305 rev/day
Decay rate: 3.1e-07 rev/day^2
Epoch rev: 50337
Checksum: 283
Satellite: NOAA-16
Catalog number: 26536
Epoch time: 08332.48370027
Element set: 186
Inclination: 099.1699 deg
RA of node: 325.3525 deg
Eccentricity: 0.0011144
Arg of perigee: 125.2894 deg
Mean anomaly: 234.9346 deg
Mean motion: 14.12502477 rev/day
Decay rate: -3.4e-07 rev/day^2
Epoch rev: 42182
Checksum: 301
Satellite: NOAA-17
Catalog number: 27453
Epoch time: 08332.34738689
Element set: 192
Inclination: 098.5168 deg
RA of node: 032.0831 deg
Eccentricity: 0.0011622
Arg of perigee: 357.4434 deg
Mean anomaly: 002.6709 deg
Mean motion: 14.24021298 rev/day
Decay rate: 2.29e-06 rev/day^2
Epoch rev: 33402
Checksum: 293
Satellite: NOAA-18
Catalog number: 28654
Epoch time: 08331.48831010
Element set: 679
Inclination: 098.8856 deg
RA of node: 270.5382 deg
Eccentricity: 0.0013809
Arg of perigee: 212.8138 deg
Mean anomaly: 147.2174 deg
Mean motion: 14.11210046 rev/day
Decay rate: -1.92e-06 rev/day^2
Epoch rev: 18136
Checksum: 301
/EX
SB KEPS @ AMSAT $ORB08332.M
Orbital Elements 08332.MISC
HR AMSAT ORBITAL ELEMENTS FOR MANNED AND MISCELLANEOUS SATELLITES
FROM WA5QGD FORT WORTH,TX November 27, 2008
Send Subscribe/unsubscribe to KEPS at
http://www.amsat.org/mailman/listinfo/keps
BID: ORB08332.M
TO ALL RADIO AMATEURS BT
Satellite: HUBBLE
Catalog number: 20580
Epoch time: 08332.17931590
Element set: 271
Inclination: 028.4701 deg
RA of node: 340.1043 deg
Eccentricity: 0.0003531
Arg of perigee: 311.8479 deg
Mean anomaly: 048.1804 deg
Mean motion: 15.00432063 rev/day
Decay rate: 3.11e-06 rev/day^2
Epoch rev: 81948
Checksum: 251
Satellite: PO-34
Catalog number: 25520
Epoch time: 08331.93223830
Element set: 130
Inclination: 028.4596 deg
RA of node: 169.1667 deg
Eccentricity: 0.0005206
Arg of perigee: 256.9313 deg
Mean anomaly: 103.0700 deg
Mean motion: 15.17263367 rev/day
Decay rate: 3.94e-06 rev/day^2
Epoch rev: 55790
Checksum: 286
Satellite: ISS
Catalog number: 25544
Epoch time: 08331.55056713
Element set: 734
Inclination: 051.6445 deg
RA of node: 264.1420 deg
Eccentricity: 0.0007009
Arg of perigee: 031.6634 deg
Mean anomaly: 301.7668 deg
Mean motion: 15.71561244 rev/day
Decay rate: 4.0469e-04 rev/day^2
Epoch rev: 57407
Checksum: 284
Satellite: CO-58
Catalog number: 28895
Epoch time: 08331.71675471
Element set: 179
Inclination: 098.0816 deg
RA of node: 221.7151 deg
Eccentricity: 0.0016794
Arg of perigee: 261.2238 deg
Mean anomaly: 098.7093 deg
Mean motion: 14.59718157 rev/day
Decay rate: 4.7e-07 rev/day^2
Epoch rev: 16419
Checksum: 344
Satellite: FALCON
Catalog number: 30776
Epoch time: 08331.91804740
Element set: 447
Inclination: 035.4341 deg
RA of node: 246.4866 deg
Eccentricity: 0.0001801
Arg of perigee: 329.5112 deg
Mean anomaly: 030.5492 deg
Mean motion: 15.03112726 rev/day
Decay rate: 3.44e-06 rev/day^2
Epoch rev: 9464
Checksum: 269
Satellite: MAST
Catalog number: 31126
Epoch time: 08332.19238511
Element set: 470
Inclination: 098.0195 deg
RA of node: 029.9383 deg
Eccentricity: 0.0094643
Arg of perigee: 186.0760 deg
Mean anomaly: 173.9316 deg
Mean motion: 14.53459918 rev/day
Decay rate: -2.8e-07 rev/day^2
Epoch rev: 8569
Checksum: 318
Satellite: CAPE1
Catalog number: 31130
Epoch time: 08331.82390129
Element set: 463
Inclination: 098.0219 deg
RA of node: 028.2251 deg
Eccentricity: 0.0102799
Arg of perigee: 191.1468 deg
Mean anomaly: 168.7450 deg
Mean motion: 14.52011370 rev/day
Decay rate: 4.8e-07 rev/day^2
Epoch rev: 8532
Checksum: 273
Satellite: COMPASS
Catalog number: 32787
Epoch time: 08332.16447954
Element set: 211
Inclination: 097.9700 deg
RA of node: 031.4158 deg
Eccentricity: 0.0015257
Arg of perigee: 332.7640 deg
Mean anomaly: 027.2771 deg
Mean motion: 14.81503979 rev/day
Decay rate: 2.33e-06 rev/day^2
Epoch rev: 3153
Checksum: 288
Satellite: AAUSAT2
Catalog number: 32788
Epoch time: 08332.14864031
Element set: 211
Inclination: 097.9723 deg
RA of node: 031.4303 deg
Eccentricity: 0.0014850
Arg of perigee: 334.5477 deg
Mean anomaly: 025.5005 deg
Mean motion: 14.81619315 rev/day
Decay rate: 5.44e-06 rev/day^2
Epoch rev: 3153
Checksum: 269
Satellite: DO-64
Catalog number: 32789
Epoch time: 08332.23162634
Element set: 222
Inclination: 097.9745 deg
RA of node: 031.5702 deg
Eccentricity: 0.0015079
Arg of perigee: 331.6920 deg
Mean anomaly: 028.3468 deg
Mean motion: 14.81543164 rev/day
Decay rate: 5.47e-06 rev/day^2
Epoch rev: 3154
Checksum: 300
Satellite: CO-66
Catalog number: 32791
Epoch time: 08331.23956857
Element set: 204
Inclination: 097.9740 deg
RA of node: 030.5215 deg
Eccentricity: 0.0015679
Arg of perigee: 334.0665 deg
Mean anomaly: 025.9758 deg
Mean motion: 14.81349248 rev/day
Decay rate: 3.0e-07 rev/day^2
Epoch rev: 3136
Checksum: 314
Satellite: RS-30
Catalog number: 32953
Epoch time: 08331.67752604
Element set: 168
Inclination: 082.5039 deg
RA of node: 022.5426 deg
Eccentricity: 0.0017812
Arg of perigee: 259.0851 deg
Mean anomaly: 100.8225 deg
Mean motion: 12.42998359 rev/day
Decay rate: 1.0e-07 rev/day^2
Epoch rev: 2323
Checksum: 281
/EX
More information about the Keps
mailing list